User: anonymous   Login
Location: Gwatt
(46.7204°N, 7.6223°E)
Time: 19:58:47
(UTC+00:00)
Language:

Cosmos 1975 - Orbit

View from above orbital plane
View from above orbital plane
View from above satellite
View from above satellite

Ground track
Ground track

The orbit data is extracted from the following two-line orbital elements,

1 19573U 88093A   21169.62836561  .00000966  00000-0  65634-4 0  9998
2 19573  82.5193   9.4291 0014334   0.9022 359.2228 15.05186626758582
Epoch (UTC): 18 June 2021 15:04:50
Eccentricity: 0.0014334
inclination: 82.5193°
perigee height: 541 km
apogee height: 561 km
right ascension of ascending node: 9.4291°
argument of perigee: 0.9022°
revolutions per day: 15.05186626
mean anomaly at epoch: 359.2228°
orbit number at epoch: 75858

The dashed part of the orbit path shows where the satellite is in the earth's shadow,  

DLR